BAW1987 LPPR-EGKK

Flight info

Callsign BAW1987
Flight time 1h 52m
Altitude 24000
Route TURON9E TURON P600 ASDEB/N0454F360 DCT KORUL DCT FEJAC DCT JSY/N0441F340 DCT REVTU/N0422F280 UP88 ODREP/N0400F240 P88 VASUX VASUX1G
Aircraft A320/M-SDE3FGHIRWY/LB1

Departure

Time 2026-05-04 15:12
Airport Francisco de Sá Carneiro Airport (LPPR)

Arrival

Time 2026-05-04 17:04
Airport London Gatwick Airport (EGKK)
Time Latitude Longitude Altitude Speed Heading
2026-05-04 14:30 41.23683 -8.67257 258 ft 0 kts 83°
2026-05-04 14:59 41.23679 -8.67299 258 ft 2 kts 83°
2026-05-04 15:00 41.23679 -8.67321 258 ft 2 kts 106°
2026-05-04 15:00 41.23687 -8.67340 258 ft 2 kts 126°
2026-05-04 15:00 41.23693 -8.67353 258 ft 0 kts 149°
2026-05-04 15:03 41.23696 -8.67356 258 ft 0 kts 161°
2026-05-04 15:04 41.23671 -8.67358 258 ft 8 kts 210°
2026-05-04 15:05 41.23642 -8.67418 260 ft 8 kts 251°
2026-05-04 15:05 41.23630 -8.67493 261 ft 8 kts 259°
2026-05-04 15:05 41.23627 -8.67512 262 ft 0 kts 259°
2026-05-04 15:06 41.23627 -8.67513 262 ft 0 kts 259°
2026-05-04 15:07 41.23625 -8.67530 262 ft 0 kts 259°
2026-05-04 15:07 41.23624 -8.67537 263 ft 6 kts 259°
2026-05-04 15:08 41.23612 -8.67608 264 ft 0 kts 258°
2026-05-04 15:08 41.23612 -8.67612 264 ft 2 kts 258°
2026-05-04 15:08 41.23608 -8.67634 264 ft 0 kts 258°
2026-05-04 15:08 41.23608 -8.67636 264 ft 1 kts 258°
2026-05-04 15:09 41.23608 -8.67638 264 ft 0 kts 258°
2026-05-04 15:09 41.23607 -8.67640 264 ft 1 kts 258°
2026-05-04 15:10 41.23587 -8.67798 265 ft 6 kts 291°
2026-05-04 15:10 41.23606 -8.67809 265 ft 0 kts 343°
2026-05-04 15:10 41.23608 -8.67810 265 ft 0 kts 345°
2026-05-04 15:11 41.23620 -8.67814 264 ft 6 kts 346°
2026-05-04 15:11 41.23875 -8.67883 255 ft 74 kts 349°
2026-05-04 15:11 41.24583 -8.68067 243 ft 130 kts 349°
2026-05-04 15:11 41.25583 -8.68368 507 ft 144 kts 347°
2026-05-04 15:12 41.26536 -8.68574 1192 ft 140 kts 343°
2026-05-04 15:12 41.27512 -8.68826 1693 ft 150 kts 344°
2026-05-04 15:12 41.28612 -8.69123 2038 ft 173 kts 344°
2026-05-04 15:12 41.29870 -8.69460 2361 ft 197 kts 345°
2026-05-04 15:13 41.31292 -8.69840 2698 ft 221 kts 345°
2026-05-04 15:13 41.32877 -8.70262 3132 ft 243 kts 346°
2026-05-04 15:13 41.34564 -8.70707 3961 ft 250 kts 346°
2026-05-04 15:13 41.36287 -8.71155 4862 ft 254 kts 346°
2026-05-04 15:14 41.38039 -8.71611 5745 ft 258 kts 346°
2026-05-04 15:14 41.39816 -8.72076 6613 ft 263 kts 346°
2026-05-04 15:14 41.41604 -8.72513 7419 ft 268 kts 351°
2026-05-04 15:14 41.43492 -8.72492 8218 ft 276 kts
2026-05-04 15:15 41.45397 -8.72016 9047 ft 281 kts
2026-05-04 15:15 41.47334 -8.71518 9837 ft 286 kts
2026-05-04 15:15 41.49316 -8.71013 10394 ft 298 kts
2026-05-04 15:16 41.53704 -8.69918 10858 ft 340 kts
2026-05-04 15:16 41.56049 -8.69326 11474 ft 346 kts
2026-05-04 15:16 41.60800 -8.68111 12847 ft 353 kts
2026-05-04 15:17 41.63226 -8.67491 13562 ft 357 kts
2026-05-04 15:17 41.68155 -8.66236 14810 ft 364 kts
2026-05-04 15:17 41.70655 -8.65600 15416 ft 368 kts
2026-05-04 15:18 41.73179 -8.64959 16000 ft 371 kts
2026-05-04 15:18 41.75731 -8.64310 16565 ft 375 kts
2026-05-04 15:18 41.78307 -8.63652 17144 ft 379 kts
2026-05-04 15:19 41.83531 -8.62321 18350 ft 386 kts
2026-05-04 15:19 41.86187 -8.61643 18883 ft 390 kts
2026-05-04 15:19 41.91529 -8.60273 20016 ft 397 kts
2026-05-04 15:20 41.94254 -8.59575 20542 ft 400 kts
2026-05-04 15:20 41.96998 -8.58871 21111 ft 403 kts
2026-05-04 15:20 41.99766 -8.58162 21653 ft 407 kts
2026-05-04 15:20 42.02558 -8.57444 22184 ft 409 kts
2026-05-04 15:21 42.05368 -8.56721 22664 ft 413 kts
2026-05-04 15:21 42.08204 -8.56032 23138 ft 415 kts
2026-05-04 15:21 42.13959 -8.55034 23975 ft 419 kts
2026-05-04 15:22 42.16829 -8.54641 24060 ft 424 kts
2026-05-04 15:22 42.19777 -8.54245 24086 ft 428 kts
2026-05-04 15:22 42.25795 -8.53368 24243 ft 443 kts
2026-05-04 15:23 42.28884 -8.52885 24360 ft 451 kts
2026-05-04 15:23 42.32025 -8.52376 24495 ft 458 kts
2026-05-04 15:23 42.34128 -8.52029 24580 ft 462 kts
2026-05-04 15:23 42.37336 -8.51498 24808 ft 465 kts
2026-05-04 15:24 42.44804 -8.50278 25646 ft 465 kts
2026-05-04 15:24 42.51214 -8.48977 26402 ft 470 kts 11°
2026-05-04 15:25 42.53319 -8.48023 26675 ft 474 kts 18°
2026-05-04 15:25 42.56285 -8.46152 27072 ft 477 kts 21°
2026-05-04 15:25 42.59313 -8.44175 27487 ft 477 kts 21°
2026-05-04 15:26 42.65247 -8.40298 28351 ft 477 kts 21°
2026-05-04 15:26 42.68233 -8.38348 28802 ft 476 kts 21°
2026-05-04 15:26 42.74214 -8.34450 29728 ft 476 kts 21°
2026-05-04 15:27 42.77204 -8.32499 30083 ft 478 kts 21°
2026-05-04 15:27 42.83218 -8.28558 30773 ft 480 kts 22°
2026-05-04 15:28 42.89208 -8.24614 31623 ft 476 kts 22°
2026-05-04 15:28 42.92189 -8.22653 31991 ft 476 kts 22°
2026-05-04 15:29 43.01057 -8.16783 32085 ft 474 kts 22°
2026-05-04 15:30 43.21794 -8.03033 32050 ft 472 kts 22°
2026-05-04 15:31 43.30609 -7.97146 32054 ft 472 kts 22°
2026-05-04 15:32 43.45369 -7.87263 32059 ft 472 kts 23°
2026-05-04 15:34 43.60055 -7.77366 32059 ft 471 kts 24°
2026-05-04 15:34 43.68866 -7.71410 32050 ft 469 kts 24°
2026-05-04 15:35 43.77659 -7.65434 32058 ft 469 kts 24°
2026-05-04 15:36 43.86424 -7.59464 32033 ft 467 kts 24°
2026-05-04 15:36 43.92256 -7.55479 32016 ft 468 kts 24°
2026-05-04 15:37 43.98064 -7.51506 32024 ft 469 kts 24°
2026-05-04 15:37 44.03935 -7.47479 32397 ft 472 kts 24°
2026-05-04 15:38 44.06883 -7.45450 32767 ft 472 kts 24°
2026-05-04 15:38 44.09820 -7.43426 33158 ft 471 kts 24°
2026-05-04 15:38 44.12753 -7.41406 33547 ft 470 kts 24°
2026-05-04 15:38 44.15680 -7.39390 33931 ft 469 kts 24°
2026-05-04 15:39 44.18606 -7.37375 34264 ft 469 kts 25°
2026-05-04 15:39 44.21526 -7.35358 34566 ft 467 kts 25°
2026-05-04 15:39 44.27310 -7.31357 34031 ft 464 kts 25°
2026-05-04 15:40 44.30168 -7.29379 34004 ft 466 kts 25°
2026-05-04 15:40 44.35978 -7.25346 34003 ft 467 kts 25°
2026-05-04 15:41 44.41788 -7.21300 34000 ft 466 kts 25°
2026-05-04 15:41 44.47604 -7.17247 34001 ft 467 kts 25°
2026-05-04 15:42 44.53423 -7.13175 34000 ft 467 kts 25°
2026-05-04 15:42 44.59239 -7.09101 34001 ft 467 kts 25°
2026-05-04 15:43 44.65057 -7.05016 33997 ft 467 kts 25°
2026-05-04 15:43 44.70831 -7.00955 33997 ft 467 kts 25°
2026-05-04 15:44 44.76642 -6.96858 33996 ft 467 kts 25°
2026-05-04 15:44 44.82442 -6.92740 33998 ft 466 kts 27°
2026-05-04 15:45 44.87831 -6.87655 33998 ft 467 kts 35°
2026-05-04 15:45 44.93122 -6.82306 33997 ft 469 kts 35°
2026-05-04 15:46 44.98424 -6.76941 33993 ft 469 kts 35°
2026-05-04 15:46 45.03688 -6.71608 33995 ft 468 kts 35°
2026-05-04 15:47 45.08955 -6.66254 33992 ft 467 kts 35°
2026-05-04 15:47 45.14234 -6.60878 33993 ft 468 kts 35°
2026-05-04 15:48 45.19515 -6.55497 33990 ft 468 kts 35°
2026-05-04 15:48 45.27447 -6.47370 33989 ft 469 kts 36°
2026-05-04 15:49 45.32736 -6.41938 33992 ft 469 kts 36°
2026-05-04 15:49 45.37996 -6.36534 33987 ft 469 kts 36°
2026-05-04 15:50 45.43277 -6.31083 33986 ft 468 kts 36°
2026-05-04 15:50 45.48554 -6.25634 33987 ft 468 kts 36°
2026-05-04 15:51 45.53824 -6.20170 33991 ft 470 kts 37°
2026-05-04 15:51 45.59111 -6.14668 33991 ft 471 kts 37°
2026-05-04 15:52 45.64361 -6.09193 33987 ft 469 kts 37°
2026-05-04 15:52 45.69628 -6.03690 33996 ft 469 kts 37°
2026-05-04 15:53 45.74893 -5.98187 33987 ft 469 kts 37°
2026-05-04 15:53 45.80160 -5.92672 33988 ft 469 kts 37°
2026-05-04 15:54 45.85416 -5.87150 33989 ft 468 kts 37°
2026-05-04 15:54 45.90667 -5.81604 33989 ft 468 kts 37°
2026-05-04 15:55 45.95882 -5.76101 33989 ft 468 kts 37°
2026-05-04 15:55 46.01131 -5.70552 33989 ft 468 kts 37°
2026-05-04 15:56 46.06369 -5.64996 33987 ft 466 kts 37°
2026-05-04 15:56 46.11576 -5.59451 33989 ft 466 kts 37°
2026-05-04 15:57 46.16790 -5.53887 33988 ft 467 kts 38°
2026-05-04 15:57 46.22008 -5.48299 33988 ft 467 kts 38°
2026-05-04 15:58 46.27198 -5.42735 33989 ft 467 kts 38°
2026-05-04 15:58 46.32411 -5.37137 33988 ft 467 kts 38°
2026-05-04 15:59 46.37620 -5.31521 33989 ft 467 kts 38°
2026-05-04 15:59 46.42822 -5.25902 33988 ft 467 kts 38°
2026-05-04 16:00 46.48025 -5.20276 33990 ft 466 kts 38°
2026-05-04 16:00 46.53213 -5.14647 33993 ft 466 kts 38°
2026-05-04 16:01 46.58368 -5.09050 33988 ft 466 kts 38°
2026-05-04 16:01 46.63551 -5.03399 33989 ft 466 kts 39°
2026-05-04 16:02 46.68731 -4.97738 33989 ft 466 kts 39°
2026-05-04 16:03 46.76496 -4.89226 33989 ft 466 kts 39°
2026-05-04 16:03 46.81664 -4.83536 33992 ft 465 kts 39°
2026-05-04 16:04 46.86795 -4.77878 33992 ft 465 kts 39°
2026-05-04 16:04 46.94506 -4.69361 33986 ft 462 kts 39°
2026-05-04 16:05 46.99625 -4.63684 33992 ft 462 kts 39°
2026-05-04 16:06 47.07302 -4.55146 33987 ft 462 kts 39°
2026-05-04 16:07 47.17472 -4.43779 33984 ft 460 kts 39°
2026-05-04 16:08 47.27649 -4.32346 33985 ft 460 kts 40°
2026-05-04 16:09 47.40352 -4.17993 33983 ft 460 kts 40°
2026-05-04 16:10 47.50490 -4.06487 33997 ft 461 kts 40°
2026-05-04 16:11 47.60664 -3.94875 33988 ft 462 kts 40°
2026-05-04 16:12 47.75874 -3.77421 33968 ft 462 kts 39°
2026-05-04 16:13 47.86045 -3.65646 33975 ft 463 kts 40°
2026-05-04 16:14 47.96183 -3.53871 33966 ft 463 kts 40°
2026-05-04 16:16 48.08857 -3.39065 33956 ft 463 kts 40°
2026-05-04 16:17 48.21412 -3.24297 33972 ft 464 kts 40°
2026-05-04 16:18 48.31549 -3.12313 33969 ft 464 kts 40°
2026-05-04 16:19 48.44195 -2.97270 33980 ft 464 kts 40°
2026-05-04 16:20 48.56824 -2.82140 34004 ft 464 kts 40°
2026-05-04 16:22 48.69393 -2.66985 33988 ft 463 kts 40°
2026-05-04 16:23 48.84610 -2.48759 33991 ft 468 kts 39°
2026-05-04 16:25 49.00125 -2.30687 33993 ft 468 kts 40°
2026-05-04 16:26 49.18108 -2.09377 34003 ft 470 kts 40°
2026-05-04 16:28 49.32023 -1.96250 33986 ft 471 kts 30°
2026-05-04 16:29 49.52048 -1.79153 33990 ft 471 kts 30°
2026-05-04 16:31 49.66832 -1.68628 34002 ft 470 kts 20°
2026-05-04 16:32 49.85255 -1.58448 33636 ft 470 kts 21°
2026-05-04 16:33 49.91439 -1.54991 32180 ft 478 kts 21°
2026-05-04 16:33 49.97740 -1.51473 30550 ft 480 kts 21°
2026-05-04 16:34 50.04017 -1.48097 29271 ft 474 kts 19°
2026-05-04 16:34 50.07147 -1.46564 28660 ft 469 kts 18°
2026-05-04 16:35 50.16345 -1.42232 26844 ft 457 kts 18°
2026-05-04 16:35 50.25332 -1.37847 25075 ft 446 kts 17°
2026-05-04 16:36 50.28276 -1.36381 24497 ft 442 kts 18°
2026-05-04 16:36 50.34087 -1.33495 23369 ft 435 kts 17°
2026-05-04 16:37 50.39756 -1.30692 22315 ft 425 kts 17°
2026-05-04 16:37 50.42558 -1.29305 21813 ft 420 kts 17°
2026-05-04 16:37 50.48081 -1.26530 20819 ft 413 kts 21°
2026-05-04 16:38 50.52959 -1.21956 19807 ft 407 kts 41°
2026-05-04 16:39 50.59414 -1.13430 18204 ft 401 kts 41°
2026-05-04 16:39 50.63636 -1.07862 17077 ft 395 kts 41°
2026-05-04 16:40 50.67476 -1.01852 15984 ft 385 kts 51°
2026-05-04 16:40 50.70844 -0.95376 14896 ft 378 kts 51°
2026-05-04 16:41 50.74142 -0.89017 13814 ft 371 kts 52°
2026-05-04 16:41 50.78826 -0.79940 13130 ft 335 kts 52°
2026-05-04 16:42 50.81687 -0.70717 12466 ft 308 kts 80°
2026-05-04 16:43 50.82453 -0.64119 11793 ft 302 kts 80°
2026-05-04 16:43 50.83197 -0.57649 11320 ft 290 kts 81°
2026-05-04 16:43 50.83553 -0.54557 11204 ft 281 kts 81°
2026-05-04 16:44 50.84871 -0.43115 10067 ft 251 kts 80°
2026-05-04 16:45 50.85487 -0.37668 10002 ft 255 kts 81°
2026-05-04 16:46 50.86938 -0.29569 10002 ft 256 kts 72°
2026-05-04 16:46 50.88144 -0.24263 10004 ft 257 kts 71°
2026-05-04 16:47 50.89347 -0.18927 10002 ft 258 kts 71°
2026-05-04 16:47 50.90550 -0.13583 10002 ft 257 kts 71°
2026-05-04 16:48 50.92345 -0.05605 10001 ft 257 kts 71°
2026-05-04 16:48 50.92945 -0.02928 10001 ft 258 kts 71°
2026-05-04 16:49 50.94140 0.02432 9997 ft 258 kts 71°
2026-05-04 16:49 50.95319 0.07819 9998 ft 259 kts 71°
2026-05-04 16:50 50.97439 0.12175 9995 ft 258 kts 22°
2026-05-04 16:50 51.00959 0.12184 9999 ft 258 kts 347°
2026-05-04 16:51 51.04438 0.10940 9999 ft 258 kts 346°
2026-05-04 16:51 51.06189 0.10304 9999 ft 259 kts 346°
2026-05-04 16:51 51.09646 0.08815 9996 ft 256 kts 329°
2026-05-04 16:52 51.11461 0.04311 9531 ft 249 kts 270°
2026-05-04 16:52 51.11351 0.01563 9195 ft 249 kts 262°
2026-05-04 16:53 51.10879 -0.03894 8560 ft 248 kts 261°
2026-05-04 16:53 51.10171 -0.11726 8057 ft 225 kts 261°
2026-05-04 16:54 51.09951 -0.14122 7937 ft 214 kts 261°
2026-05-04 16:55 51.09077 -0.23218 6854 ft 213 kts 261°
2026-05-04 16:55 51.08598 -0.27962 6107 ft 222 kts 261°
2026-05-04 16:56 51.08086 -0.32767 5329 ft 217 kts 262°
2026-05-04 16:56 51.07337 -0.39450 4707 ft 196 kts 261°
2026-05-04 16:57 51.07095 -0.41577 4531 ft 195 kts 261°
2026-05-04 16:57 51.06619 -0.45800 4167 ft 194 kts 261°
2026-05-04 16:58 51.05995 -0.51407 4007 ft 194 kts 263°
2026-05-04 16:58 51.06139 -0.53488 3999 ft 190 kts 299°
2026-05-04 16:59 51.08286 -0.55670 3809 ft 188 kts 344°
2026-05-04 17:00 51.11376 -0.50917 3051 ft 187 kts 88°
2026-05-04 17:00 51.11461 -0.44745 3010 ft 187 kts 88°
2026-05-04 17:01 51.11808 -0.40651 2739 ft 186 kts 77°
2026-05-04 17:01 51.12365 -0.36646 2298 ft 185 kts 77°
2026-05-04 17:02 51.12913 -0.32720 1758 ft 171 kts 78°
2026-05-04 17:02 51.13376 -0.29395 1350 ft 142 kts 78°
2026-05-04 17:03 51.13602 -0.27883 1165 ft 139 kts 77°
2026-05-04 17:03 51.13802 -0.26394 973 ft 137 kts 77°
2026-05-04 17:03 51.14203 -0.23476 616 ft 135 kts 78°
2026-05-04 17:04 51.14594 -0.20647 249 ft 126 kts 77°
2026-05-04 17:04 51.14863 -0.18713 208 ft 39 kts 76°
2026-05-04 17:05 51.15040 -0.18322 208 ft 9 kts 51°
2026-05-04 17:05 51.15043 -0.18315 210 ft 0 kts 51°
2026-05-04 17:06 51.15044 -0.18315 210 ft 1 kts 51°
2026-05-04 17:07 51.15093 -0.18215 205 ft 9 kts 53°
2026-05-04 17:07 51.15121 -0.18157 213 ft 11 kts 53°
2026-05-04 17:07 51.15148 -0.17984 209 ft 14 kts 81°
2026-05-04 17:07 51.15168 -0.17813 209 ft 17 kts 77°
2026-05-04 17:08 51.15196 -0.17612 207 ft 20 kts 77°
2026-05-04 17:08 51.15284 -0.17230 208 ft 16 kts 15°
2026-05-04 17:08 51.15340 -0.17083 205 ft 18 kts 77°
2026-05-04 17:09 51.15369 -0.16874 205 ft 21 kts 78°
2026-05-04 17:09 51.15403 -0.16637 205 ft 23 kts 76°
2026-05-04 17:09 51.15388 -0.16501 209 ft 13 kts 156°
2026-05-04 17:10 51.15320 -0.16352 214 ft 5 kts 45°
2026-05-04 17:10 51.15369 -0.16346 205 ft 0 kts 359°